WB7CYS Weather Reports


Display with metric or nautical units.
time (UTC)temp
F
wind
direction
speed
MPH
gust
MPH
rain 1hr
in
rain 24hr
in
rain mn
in
humidity
%
barometer
mb
20260504203025 76 292 6.0 10.0 0.00 0.00 0.00 38 1005.7
20260504201519 75 295 3.0 11.0 0.00 0.00 0.00 36 1005.8
20260504200019 75 270 3.0 8.0 0.00 0.00 0.00 38 1005.9
20260504194517 75 162 3.0 8.0 0.00 0.00 0.00 37 1005.9
20260504193017 75 301 5.0 10.0 0.00 0.00 0.00 41 1006.1
20260504191514 74 245 3.0 8.0 0.00 0.00 0.00 39 1006.3
20260504190010 73 278 2.0 11.0 0.00 0.00 0.00 41 1006.4
20260504184513 73 207 2.0 10.0 0.00 0.00 0.00 40 1006.4
20260504183008 72 201 3.0 9.0 0.00 0.00 0.00 41 1006.5
20260504181505 71 209 6.0 8.0 0.00 0.00 0.00 43 1006.6
20260504180004 71 257 7.0 9.0 0.00 0.00 0.00 43 1006.7
20260504174502 70 285 5.0 8.0 0.00 0.00 0.00 45 1006.7
20260504173101 70 246 6.0 9.0 0.00 0.00 0.00 46 1006.7
20260504171558 69 228 4.0 8.0 0.00 0.00 0.00 43 1006.7
20260504081509 58 87 7.0 12.0 0.00 0.00 0.00 61 1006.2
20260504044546 62 86 6.0 7.0 0.00 0.00 0.00 60 1006.3
20260504043052 62 73 5.0 8.0 0.00 0.00 0.00 62 1006.3
20260504041545 63 85 7.0 9.0 0.00 0.00 0.00 60 1006.2
20260504040043 64 91 6.0 8.0 0.00 0.00 0.00 59 1006.0
20260504034543 65 84 4.0 5.0 0.00 0.00 0.00 58 1006.0
20260504033043 68 91 5.0 5.0 0.00 0.00 0.00 52 1005.8
20260504031543 68 98 4.0 6.0 0.00 0.00 0.00 53 1005.6
20260504030041 72 85 3.0 4.0 0.00 0.00 0.00 53 1005.6
20260504024544 75 40 2.0 3.0 0.00 0.00 0.00 44 1005.5
20260504023040 78 30 0.0 3.0 0.00 0.00 0.00 37 1005.6
20260504021537 79 59 0.0 1.0 0.00 0.00 0.00 38 1005.7
20260504020048 79 358 0.0 7.0 0.00 0.00 0.00 37 1005.9
20260504014543 79 21 4.0 6.0 0.00 0.00 0.00 34 1006.1
20260504013040 79 7 2.0 10.0 0.00 0.00 0.00 34 1006.2
20260504011531 79 345 5.0 11.0 0.00 0.00 0.00 31 1006.3
20260504010028 79 27 4.0 12.0 0.00 0.00 0.00 32 1006.5
20260504004532 79 347 6.0 11.0 0.00 0.00 0.00 32 1006.7
20260504003024 80 358 4.0 10.0 0.00 0.00 0.00 30 1006.8
20260504001524 80 44 5.0 10.0 0.00 0.00 0.00 34 1006.9
20260504000020 79 53 5.0 9.0 0.00 0.00 0.00 31 1007.2
20260503234517 80 360 7.0 11.0 0.00 0.00 0.00 34 1007.3
20260503233116 80 335 5.0 12.0 0.00 0.00 0.00 29 1007.4
20260503231513 80 229 2.0 9.0 0.00 0.00 0.00 30 1007.6
20260503230010 79 51 4.0 10.0 0.00 0.00 0.00 28 1007.7
20260503224507 79 41 7.0 13.0 0.00 0.00 0.00 35 1007.9
20260503223006 79 13 4.0 13.0 0.00 0.00 0.00 30 1008.1
20260503221503 79 15 5.0 13.0 0.00 0.00 0.00 33 1008.2
20260503220100 79 54 4.0 10.0 0.00 0.00 0.00 36 1008.4
20260503220001 79 26 4.0 10.0 0.00 0.00 0.00 34 1008.5
20260503214601 79 22 5.0 9.0 0.00 0.00 0.00 29 1008.6
20260503213055 79 358 5.0 9.0 0.00 0.00 0.00 28 1008.7
20260503211553 79 43 6.0 10.0 0.00 0.00 0.00 32 1008.9
20260503210051 78 310 7.0 9.0 0.00 0.00 0.00 34 1009.0
20260503204548 78 85 5.0 14.0 0.00 0.00 0.00 41 1009.3